{"data":{"norad_id":67576,"epoch":"2026-09-19T22:14:33.789408Z","epoch_age_seconds":121821,"freshness":"FRESH","line1":"1 67576U 26016R   26262.92677997  .00012311  00000+0  38297-3 0  9999","line2":"2 67576  97.2848 321.6148 0001304  99.9391 260.1999 15.33450375 36634","mean_motion":15.33450375,"eccentricity":0.0001304,"inclination_deg":97.2848,"raan_deg":321.6148,"arg_perigee_deg":99.9391,"mean_anomaly_deg":260.1999,"bstar":0.00038297,"rev_number":3663,"period_min":93.905875499884,"perigee_km":464.63476849711,"apogee_km":466.41959611585,"semimajor_km":6843.6641823065,"source":"CELESTRAK","updated_at":"2026-09-20T09:00:43.577286Z"}}